Regional Weather Roundup
Issued by NWS Charleston, WV

Home | Current Version | Previous Version | Graphics & Text | Print | Product List | Glossary On
Versions: 1 2 3 4 5 6 7 8 9 10 11 12 13 14 15 16 17 18 19 20 21 22 23 24 25 26 27 28 29 30 31 32 33 34 35 36 37 38 39 40 41 42 43 44 45 46 47 48 49 50
000
ASUS41 KRLX 281910
RWRRLX
West Virginia Regional Weather Roundup
National Weather Service Charleston WV
300 PM EDT TUE MAR 28 2017

Note: "fair" indicates few or no clouds below 12,000 feet with no
significant weather and/or obstructions to visibility.

WVZ003-282000-
Northern Panhandle of West Virginia

CITY           SKY/WX    TMP DP  RH WIND       PRES   REMARKS
WHEELING       CLOUDY    57  52  83 NW10      29.92R
$$

WVZ009-282000-
Northwest West Virginia

CITY           SKY/WX    TMP DP  RH WIND       PRES   REMARKS
PARKERSBURG    CLOUDY    62  54  74 NW9       29.96R
$$

WVZ006-282000-
Western West Virginia

CITY           SKY/WX    TMP DP  RH WIND       PRES   REMARKS
HUNTINGTON     CLOUDY    64  54  69 W7        29.96S
$$

WVZ015-282000-
West Central West Virginia

CITY           SKY/WX    TMP DP  RH WIND       PRES   REMARKS
CHARLESTON     PTSUNNY   65  53  65 W10G20    29.94S
$$

WVZ022-031-282000-
North Central West Virginia

CITY           SKY/WX    TMP DP  RH WIND       PRES   REMARKS
CLARKSBURG     PTSUNNY   64  53  67 VRB5      29.89F
MORGANTOWN     CLOUDY    64  52  64 SW7       29.89F
$$

WVZ025-035-042-045-282000-
Southern West Virginia

CITY           SKY/WX    TMP DP  RH WIND       PRES   REMARKS
BECKLEY        CLOUDY    59  49  69 W8        29.96S
LOGAN          CLOUDY    59  54  82 W8        29.97S
BLUEFIELD      NOT AVBL
LEWISBURG      CLOUDY    62  48  58 NW7G16    29.94R
$$

WVZ047-282000-
Northern Mountains of West Virginia

CITY           SKY/WX    TMP DP  RH WIND       PRES   REMARKS
ELKINS         CLOUDY    61  50  67 SW6       29.91S
$$

WVZ052-282000-
Eastern Panhandle of West Virginia

CITY           SKY/WX    TMP DP  RH WIND       PRES   REMARKS
MARTINSBURG    CLOUDY    67  57  70 VRB6      29.83F
PETERSBURG     CLOUDY    69  54  58 W7        29.87S
$$



USA.gov is the U.S. government's official web portal to all federal, state and local government web resources and services.